[[{"header":{"parameterUnit":"m.s-1","parameterCategory":1,"la1":30.2992,"la2":30.254,"lo1":-89.0895,"lo2":-89.0443,"dy":0.0025,"dx":0.0025,"nx":19,"ny":19,"refTime":"2026-03-09T09:00:00:Z","depth":0,"parameterNumber":2,"parameterNumberName":"U-component_of_WINDS"},"data":[0,0,0,-2.6589,-2.6591,-2.6684,-2.6684,-2.6801,-2.6802,0,0,0,0,0,0,0,0,0,0,0,-2.6559,-2.656,-2.6589,-2.6592,-2.6684,-2.6684,-2.6801,-2.6802,0,0,0,0,0,0,0,0,0,0,0,-2.6559,-2.656,-2.6561,-2.6592,-2.6684,-2.6684,-2.6801,-2.6732,0,0,0,0,0,0,0,0,0,0,-2.6643,-2.6612,-2.656,-2.6561,-2.6592,-2.6684,-2.6684,-2.6729,-2.6736,-2.6759,0,-2.6775,0,-2.6791,-2.681,-2.681,0,0,0,-2.6594,-2.6606,-2.6633,-2.6561,-2.6593,-2.6683,-2.6643,-2.6733,-2.6742,-2.6769,-2.6777,-2.6782,-2.6793,-2.6811,-2.6811,-2.6924,-2.6925,0,0,-2.6589,-2.6575,-2.6627,-2.6638,-2.6621,-2.664,-2.6646,-2.6738,-2.6748,-2.6778,-2.6784,-2.6794,-2.6811,-2.6812,-2.6924,-2.6924,0,0,0,-2.6573,-2.6571,-2.6596,-2.6633,-2.665,-2.6642,-2.6649,-2.6744,-2.6753,-2.6786,-2.6796,-2.6812,-2.6814,-2.6923,-2.6924,-2.6928,0,0,0,-2.657,-2.6562,-2.6594,-2.6586,-2.6648,-2.6697,-2.6652,-2.6746,-2.6757,-2.6795,-2.6812,-2.6815,-2.6923,-2.6924,-2.6927,-2.6932,0,0,0,-2.6554,-2.656,-2.6572,-2.6585,-2.6624,-2.6696,-2.6711,-2.6749,-2.6763,-2.681,-2.6815,-2.6923,-2.6924,-2.6926,-2.6931,-2.6956,0,0,0,-2.6535,-2.6576,-2.6572,-2.6623,-2.6623,-2.6698,-2.671,-2.6767,-2.6808,-2.6813,-2.6923,-2.6924,-2.6926,-2.693,-2.6955,-2.6973,-2.698,0,0,-2.658,-2.6581,-2.6613,-2.6611,-2.6682,-2.6685,-2.6758,-2.681,-2.6829,-2.6892,-2.6895,-2.6927,-2.693,-2.6956,-2.7027,-2.7032,0,0,0,-2.6622,-2.6644,-2.6666,-2.6703,-2.6743,-2.6777,-2.6819,-2.6839,-2.6893,-2.6858,-2.6945,-2.6947,-2.6963,-2.6972,-2.6977,-2.6991,-2.6928,-2.6928,-2.6928,-2.6665,-2.6685,-2.6737,-2.6769,-2.6805,-2.6848,-2.688,-2.6914,-2.6925,-2.6946,-2.6963,-2.7004,-2.7014,-2.7018,-2.7032,-2.6977,-2.6977,-2.6977,-2.6977,-2.6731,-2.6765,-2.6778,-2.6833,-2.6855,-2.6903,-2.6947,-2.6953,-2.7002,-2.6992,-2.7007,-2.6992,-2.7023,-2.7036,-2.6977,-2.6977,-2.6977,-2.6977,-2.6977,-2.676,-2.6779,-2.6801,-2.6856,-2.6897,-2.6929,-2.6974,-2.6994,-2.7013,-2.7028,-2.7048,-2.7048,-2.7049,-2.7037,-2.7037,-2.7037,-2.7037,-2.7037,-2.7037,-2.678,-2.6804,-2.6838,-2.6884,-2.691,-2.6947,-2.6991,-2.7019,-2.7054,-2.7065,-2.7065,-2.7074,-2.7022,-2.7007,-2.7039,-2.7039,-2.7039,-2.7039,-2.7038,-2.6836,-2.6826,-2.6879,-2.6905,-2.696,-2.6999,-2.7023,-2.7077,-2.7103,-2.7125,-2.7131,-2.709,-2.7094,-2.7091,-2.7078,-2.7127,-2.7127,-2.7127,-2.7127,-2.6859,-2.6862,-2.692,-2.696,-2.7002,-2.7029,-2.709,-2.7125,-2.7161,-2.7179,-2.7175,-2.7162,-2.7158,-2.7164,-2.7159,-2.7148,-2.7213,-2.7213,-2.7213,-2.6894,-2.6902,-2.6948,-2.6981,-2.7025,-2.7063,-2.7121,-2.7168,-2.7207,-2.7217,-2.7193,-2.7189,-2.7168,-2.716,-2.7166,-2.7158,-2.7138,0,0]},{"header":{"parameterUnit":"m.s-1","parameterCategory":1,"la1":30.2992,"la2":30.254,"lo1":-89.0895,"lo2":-89.0443,"dy":0.0025,"dx":0.0025,"nx":19,"ny":19,"refTime":"2026-03-09T09:00:00:Z","depth":0,"parameterNumber":3,"parameterNumberName":"V-component_of_WINDS"},"data":[0,0,0,2.838,2.8383,2.8559,2.856,2.8768,2.877,0,0,0,0,0,0,0,0,0,0,0,2.8313,2.8314,2.838,2.8384,2.8559,2.856,2.8768,2.877,0,0,0,0,0,0,0,0,0,0,0,2.8313,2.8314,2.8315,2.8384,2.8559,2.856,2.8767,2.8642,0,0,0,0,0,0,0,0,0,0,2.8475,2.8398,2.8314,2.8315,2.8385,2.8558,2.856,2.8636,2.865,2.868,0,2.8699,0,2.8737,2.8782,2.8783,0,0,0,2.8396,2.8386,2.8446,2.8315,2.8386,2.8558,2.8483,2.8644,2.8659,2.8698,2.8702,2.871,2.8741,2.8783,2.8784,2.8909,2.8909,0,0,2.8386,2.8338,2.8435,2.8455,2.8422,2.8477,2.8488,2.8653,2.8657,2.8703,2.8716,2.8744,2.8785,2.8786,2.8909,2.8909,0,0,0,2.835,2.8331,2.8387,2.8446,2.8479,2.8482,2.8495,2.865,2.8672,2.8718,2.8746,2.8786,2.8788,2.8909,2.8909,2.8862,0,0,0,2.8345,2.831,2.8382,2.8355,2.8475,2.8565,2.8487,2.866,2.868,2.8745,2.8786,2.879,2.8909,2.8909,2.8863,2.8848,0,0,0,2.8307,2.8306,2.8325,2.8352,2.8425,2.8564,2.8596,2.8666,2.8697,2.8783,2.879,2.8909,2.8909,2.8864,2.885,2.8867,0,0,0,2.8254,2.8282,2.8324,2.8367,2.8423,2.8531,2.8595,2.8679,2.8747,2.8787,2.8909,2.8909,2.8865,2.8851,2.8868,2.8872,2.8869,0,0,2.8263,2.8282,2.8311,2.8353,2.8441,2.8509,2.8592,2.8702,2.8756,2.8856,2.886,2.8863,2.885,2.8867,2.8869,2.8866,0,0,0,2.8298,2.8319,2.8352,2.8413,2.8495,2.8565,2.8667,2.8708,2.8795,2.8796,2.8875,2.8869,2.8881,2.8886,2.8883,2.8898,2.8909,2.8909,2.8909,2.8243,2.8308,2.8362,2.8448,2.8507,2.8611,2.8666,2.874,2.8791,2.8809,2.8839,2.8831,2.8834,2.8833,2.8847,2.8846,2.8846,2.8846,2.8846,2.8263,2.8303,2.8369,2.8444,2.8514,2.8581,2.8684,2.8718,2.8792,2.8814,2.8828,2.8846,2.8828,2.8844,2.8843,2.8844,2.8844,2.8844,2.8844,2.8235,2.8265,2.8312,2.8407,2.8474,2.8563,2.8631,2.8694,2.8754,2.8768,2.8808,2.8809,2.8819,2.8782,2.8782,2.8782,2.8782,2.8782,2.8782,2.8186,2.8241,2.8288,2.8378,2.8425,2.8497,2.8603,2.8654,2.8727,2.8768,2.8769,2.8819,2.8813,2.881,2.8782,2.8782,2.8782,2.8782,2.8782,2.8183,2.8194,2.8266,2.8313,2.8425,2.8489,2.8568,2.8666,2.8717,2.875,2.8798,2.8782,2.8807,2.881,2.8808,2.8781,2.8781,2.8781,2.8781,2.8159,2.8177,2.8266,2.8338,2.8416,2.8495,2.858,2.8664,2.8754,2.8791,2.8805,2.8808,2.8807,2.8833,2.8835,2.8835,2.8815,2.8815,2.8815,2.8162,2.819,2.8247,2.8331,2.8424,2.8503,2.8585,2.867,2.8775,2.8818,2.8822,2.8821,2.8827,2.8825,2.8867,2.8869,2.887,0,0]}]]